Platinum, AK

4:47 AM AKST on December 12, 2019 (GMT -0900)
Platinum

Weather History for PAPM - October, 2019

Change the Weather History Date:

Saturday, October 19, 2019

  Actual Average (PAEH) Record (PAEH)
Temperature  
Mean Temperature 34 °F -  
Max Temperature 39 °F 36 °F 44 °F (2004)
Min Temperature 28 °F 29 °F 26 °F (1997)
Degree Days  
Heating Degree Days 32    
Moisture  
Dew Point 30 °F    
Average Humidity 81    
Maximum Humidity 92    
Minimum Humidity 68    
Precipitation  
Precipitation 0.01 in - - ()
Sea Level Pressure  
Sea Level Pressure 29.44 in    
Wind  
Wind Speed 17 mph (East)    
Max Wind Speed 21 mph    
Max Gust Speed 23 mph    
Visibility 10 miles    
Events Rain    
Averages and records for this station are not official NWS values.
T = Trace of Precipitation, MM = Missing Value Source: NWS Daily Summary

Daily Weather History Graph

Daily Weather History Graph

Search for Another Location

Airport or City:

Astronomy

Oct. 19, 2019 Rise Set
Actual Time 9:34 AM AKDT 7:29 PM AKDT
Civil Twilight 8:52 AM AKDT 8:10 PM AKDT
Nautical Twilight 8:05 AM AKDT 8:57 PM AKDT
Astronomical Twilight 7:18 AM AKDT 9:44 PM AKDT
Moon 10:42 PM AKDT (10/19) 4:24 PM AKDT (10/19)
Length of Visible Light 11h 18m
Length of Day
9h 55m
Waning Gibbous, 68% of the Moon is Illuminated
Oct 19
Waning Gibbous
Oct 21
Last Quarter
Oct 27
New
Nov 4
First Quarter
Nov 12
Full

Hourly Weather History & Observations

Time (AKDT) Temp. Windchill Dew Point Humidity Pressure Visibility Wind Dir Wind Speed Gust Speed Precip Events Conditions
12:56 AM 30.0 °F 19.5 °F 28.0 °F 92% 29.43 in 10.0 mi East 13.8 mph - N/A   Clear
1:56 AM 28.9 °F 18.2 °F 27.0 °F 92% 29.42 in 10.0 mi ENE 13.8 mph - N/A   Clear
2:56 AM 30.0 °F 17.9 °F 27.0 °F 88% 29.42 in 10.0 mi ENE 18.4 mph - N/A   Clear
3:56 AM 30.0 °F 17.5 °F 27.0 °F 88% 29.42 in 10.0 mi ENE 19.6 mph - N/A   Clear
4:56 AM 28.9 °F 16.5 °F 26.1 °F 89% 29.42 in 10.0 mi ENE 18.4 mph - N/A   Clear
6:56 AM 28.9 °F 16.1 °F 26.1 °F 89% 29.41 in 10.0 mi ENE 19.6 mph - N/A   Partly Cloudy
7:56 AM 28.9 °F 16.5 °F 26.1 °F 89% 29.41 in 10.0 mi ENE 18.4 mph - N/A   Mostly Cloudy
11:56 AM 33.1 °F 21.5 °F 28.9 °F 85% 29.43 in 10.0 mi ENE 19.6 mph - N/A   Partly Cloudy
12:56 PM 34.0 °F 22.4 °F 28.9 °F 82% 29.44 in 10.0 mi ENE 20.7 mph - N/A   Mostly Cloudy
1:56 PM 36.0 °F 26.0 °F 30.9 °F 82% 29.45 in 10.0 mi ENE 17.3 mph - N/A   Overcast
2:56 PM 39.0 °F 29.6 °F 30.0 °F 70% 29.44 in 10.0 mi ESE 18.4 mph 23.0 mph N/A   Mostly Cloudy
3:56 PM 39.0 °F 29.3 °F 30.9 °F 73% 29.44 in 10.0 mi ESE 19.6 mph - N/A   Overcast
4:56 PM 39.9 °F 30.5 °F 30.0 °F 68% 29.44 in 10.0 mi East 19.6 mph - 0.00 in Rain Light Rain
5:56 PM 39.9 °F 30.5 °F 30.9 °F 70% 29.44 in 10.0 mi East 19.6 mph - 0.00 in   Overcast
6:29 PM 39.2 °F 29.6 °F 30.2 °F 70% 29.43 in 10.0 mi East 19.6 mph - N/A   Overcast
6:56 PM 39.0 °F 31.0 °F 30.9 °F 73% 29.45 in 10.0 mi East 13.8 mph - N/A   Overcast
7:25 PM 39.2 °F 31.2 °F 30.2 °F 70% 29.44 in 10.0 mi East 13.8 mph - N/A   Overcast
7:56 PM 39.0 °F 29.6 °F 30.9 °F 73% 29.45 in 10.0 mi East 18.4 mph 21.9 mph N/A   Overcast
8:56 PM 39.0 °F 30.3 °F 32.0 °F 76% 29.46 in 10.0 mi East 16.1 mph - 0.00 in   Overcast
9:03 PM 39.2 °F 30.2 °F 32.0 °F 75% 29.46 in 10.0 mi East 17.3 mph - N/A   Overcast
9:29 PM 39.2 °F 30.5 °F 33.8 °F 81% 29.46 in 10.0 mi East 16.1 mph - 0.00 in Rain Light Rain
9:56 PM 39.0 °F 31.0 °F 33.1 °F 79% 29.47 in 10.0 mi East 13.8 mph - 0.00 in   Overcast
10:06 PM 37.4 °F 28.9 °F 33.8 °F 87% 29.46 in 10.0 mi East 13.8 mph - N/A   Overcast
10:56 PM 37.9 °F 29.2 °F 34.0 °F 86% 29.48 in 10.0 mi East 15.0 mph - 0.00 in Rain Light Rain
11:56 PM 37.9 °F 30.5 °F 34.0 °F 86% 29.49 in 10.0 mi East 11.5 mph - 0.01 in Rain Light Rain